Погода в Сероглазке

Россия / Астраханская область     47°00′29″N   47°28′54″E
темп.,
°C
ветер,
м/с
пор.,
м/с
влажн.,
%
обл.,
%
осадки,
мм/ч
давл.,
гПа
погр.,
м
13 мая, чт
чт1301:00+18юв45630 0.0 1015122
04:00+17ю34660 0.0 1014102
07:00+17ю23590 0.0 1015165
10:00+21ююв34490 0.0 1016660
13:00+25ю44450 0.0 1016647
16:00+27ю23430 0.0 1015817
19:00+27юв56410 0.0 1015283
22:00+21ююв58550 0.0 1017144
14 мая, пт
пт1401:00+19юв48603 0.0 1017181
04:00+19юв46580 0.0 1017100
07:00+21вюв36510 0.0 1017140
10:00+28ююв912305 0.0 1017493
13:00+30ююв912234 0.0 1017955
16:00+30юв9122169 0.0 10171005
19:00+27юв8112414 0.0 1017359
22:00+23вюв511345 0.0 1018160
15 мая, сб
сб1501:00+21вюв510400 0.0 1017157
04:00+20вюв510430 0.0 1017139
07:00+21вюв613460 0.0 1017236
10:00+28юв912300 0.0 1017632
13:00+30юв911230 0.0 10171490
16:00+30юв89240 0.0 10161430
19:00+28ююв79294 0.0 1016328
22:00+23юв58448 0.0 101797
16 мая, вс
вс1601:00+22вюв46440 0.0 101677
04:00+22в59420 0.0 1015110
07:00+22вюв510480 0.0 1015175
10:00+29ююв810310 0.0 1014614
13:00+31юв1113251 0.0 10141746
16:00+30вюв1012241 0.0 10131373
19:00+28вюв710270 0.0 1013472
22:00+23вюв510354 0.0 1013164
17 мая, пн
пн1701:00+22в510365 0.0 1012143
04:00+21в511404 0.0 1012157
07:00+22вюв612491 0.0 1012240
10:00+28вюв811294 0.0 1012702
13:00+30юв911200 0.0 10121564
16:00+30юв810201 0.0 10121466
19:00+29юв79234 0.0 1011339
22:00+24вюв44336 0.0 101237